Home   Weather   Abilene   Past weeks

Flag for USA Past Weather in Abilene, Texas, USA — Yesterday and Last 2 Weeks

Now
89 °F

Sunny.


Feels Like: 93 °F
Forecast: 77 / 98 °F
Wind: 15 mph from Southwest

Location: Abilene Regional Airport

Current Time: Jul 21, 2017 at 12:02:48 pm

Latest Report: Jul 21, 2017 at 10:52 am


Visibility: 10 mi

Pressure: 29.97 "Hg (28.26 "Hg at 524m altitude)

Humidity: 50%

Dew Point: 68 °F

Location of AbileneLocation

Past Weather in Abilene — Graph

°F

Abilene Temperature Yesterday

Maximum temperature yesterday: 97 °F (at 4:52 pm)
Minimum temperature yesterday: 74 °F (at 6:52 am)
Average temperature yesterday: 86 °F

High & Low Weather Summary for the Past Weeks

 TemperatureHumidityPressure
High97 °F (Jul 15, 2:52 pm)96% (Jul 10, 5:52 am)30.13 "Hg (Jul 10, 5:52 am)
Low68 °F (Jul 10, 5:52 am)29% (Jul 11, 4:52 pm)29.83 "Hg (Jul 11, 6:52 pm)
Average83 °F58%29.98 "Hg
* Reported Jul 6 10:52 am — Jul 21 10:52 am, Abilene. Weather by CustomWeather, © 2017

Note: Actual official high and low records may vary slightly from our data, if they occured in-between our weather recording intervals... More about our weather records

Advertising

Abilene Weather History for the Previous 24 Hours

Scroll right to see more
 ConditionsComfort  
Time TempWeatherWind HumidityBarometerVisibility
10:52 am
Fri, Jul 21
89 °FSunny.15 mph50%29.97 "Hg10 mi
9:52 am84 °FPassing clouds.12 mph59%29.98 "Hg10 mi
8:52 am82 °FSunny.10 mph65%29.98 "Hg10 mi
7:52 am77 °FSunny.7 mph71%29.97 "Hg10 mi
6:52 am74 °FSunny.7 mph74%29.95 "Hg10 mi
5:52 am77 °FClear.8 mph66%29.93 "Hg10 mi
4:52 am75 °FClear.7 mph69%29.93 "Hg10 mi
3:52 am77 °FClear.8 mph62%29.93 "Hg10 mi
2:52 am78 °FClear.8 mph60%29.94 "Hg10 mi
1:52 am81 °FClear.10 mph54%29.94 "Hg10 mi
12:52 am82 °FClear.13 mph53%29.95 "Hg10 mi
11:52 pm
Thu, Jul 20
82 °FClear.10 mph53%29.95 "Hg10 mi
10:52 pm85 °FClear.10 mph48%29.94 "Hg10 mi
9:52 pm87 °FClear.12 mph45%29.93 "Hg10 mi
8:52 pm90 °FClear.10 mph39%29.91 "Hg10 mi
7:52 pm94 °FSunny.12 mph35%29.90 "Hg10 mi
6:52 pm95 °FSunny.10 mph32%29.89 "Hg10 mi
5:52 pm96 °FSunny.8 mph32%29.91 "Hg10 mi
4:52 pm97 °FScattered clouds.12 mph33%29.94 "Hg10 mi
3:52 pm94 °FScattered clouds.10 mph36%29.97 "Hg10 mi
2:52 pm94 °FBroken clouds.13 mph36%29.99 "Hg10 mi
1:52 pm94 °FPartly sunny.10 mph38%30.03 "Hg10 mi
12:52 pm93 °FScattered clouds.7 mph41%30.04 "Hg10 mi
Weather by CustomWeather, © 2017

See weather overviewHow to use our weather pages